Weather History for Truckee-Tahoe, CA

Change the Weather History Date:

Monday, April 8, 2013

  Actual Average Record
Temperature  
Mean Temperature 32 °F -  
Max Temperature 37 °F 52 °F 80 °F (2012)
Min Temperature 26 °F 24 °F 8 °F (1975)
Degree Days  
Heating Degree Days 34    
Moisture  
Dew Point 23 °F    
Average Humidity 72    
Maximum Humidity 93    
Minimum Humidity 45    
Precipitation  
Precipitation 0.01 in - - ()
Sea Level Pressure  
Sea Level Pressure 29.84 in    
Wind  
Wind Speed 8 mph (NNE)    
Max Wind Speed 23 mph    
Max Gust Speed 36 mph    
Visibility 8 miles    
Events Rain , Snow    
Averages and records for this station are not official NWS values.
T = Trace of Precipitation, MM = Missing Value Source: NWS Daily Summary

Daily Weather History Graph

Daily Weather History Graph

Search for Another Location

Airport:

Trip Planner

Search our weather history database for the weather conditions in past years. The results will help you decide how hot, cold, wet, or windy it might be!

Date:

Astronomy

Apr. 08, 2013 Rise Set
Actual Time 6:33 AM PDT 7:31 PM PDT
Civil Twilight 6:06 AM PDT 7:59 PM PDT
Nautical Twilight 5:33 AM PDT 8:31 PM PDT
Astronomical Twilight 5:00 AM PDT 9:05 PM PDT
Moon 5:25 AM PDT (4/8) 6:11 PM PDT (4/8)
Length of Visible Light 13h 52m
Length of Day
12h 58m
Waning Crescent, 3% of the Moon is Illuminated
Apr 8
Waning Crescent
Apr 10
New
Apr 18
First Quarter
Apr 25
Full
May 2
Last Quarter

Hourly Weather History & Observations

Time (PDT) Temp. Windchill Dew Point Humidity Pressure Visibility Wind Dir Wind Speed Gust Speed Precip Events Conditions
12:15 AM 32.0 °F 26.4 °F 28.4 °F 87% 29.69 in 5.0 mi SSE 5.8 mph - N/A Snow Light Snow
12:35 AM 32.0 °F 25.6 °F 28.4 °F 87% 29.68 in 4.0 mi SSW 6.9 mph - N/A Snow Light Snow
12:55 AM 32.0 °F - 28.4 °F 87% 29.68 in 9.0 mi Calm Calm - N/A Snow Light Snow
1:15 AM 32.0 °F 27.5 °F 28.4 °F 87% 29.67 in 8.0 mi NNE 4.6 mph - N/A Snow Light Snow
1:35 AM 32.0 °F 27.5 °F 28.4 °F 87% 29.67 in 10.0 mi NNE 4.6 mph - N/A   Mostly Cloudy
1:55 AM 32.0 °F 27.5 °F 28.4 °F 87% 29.67 in 10.0 mi WNW 4.6 mph - N/A Snow Light Snow
2:15 AM 30.2 °F 25.4 °F 28.4 °F 93% 29.67 in 10.0 mi East 4.6 mph - N/A   Overcast
2:35 AM 30.2 °F - 28.4 °F 93% 29.67 in 10.0 mi Calm Calm - N/A   Overcast
2:55 AM 32.0 °F - 28.4 °F 87% 29.66 in 10.0 mi Calm Calm - N/A   Mostly Cloudy
3:15 AM 32.0 °F 28.7 °F 28.4 °F 87% 29.66 in 10.0 mi West 3.5 mph - N/A   Mostly Cloudy
3:35 AM 32.0 °F 27.5 °F 26.6 °F 80% 29.66 in 10.0 mi South 4.6 mph - N/A   Mostly Cloudy
3:55 AM 32.0 °F - 28.4 °F 87% 29.67 in 10.0 mi Calm Calm - N/A   Mostly Cloudy
4:15 AM 32.0 °F 24.8 °F 28.4 °F 87% 29.68 in 7.0 mi North 8.1 mph - N/A Snow Light Snow
4:35 AM 30.2 °F 20.8 °F 28.4 °F 93% 29.68 in 0.5 mi NNW 11.5 mph 25.3 mph N/A Snow Snow
4:55 AM 28.4 °F 20.4 °F 26.6 °F 93% 29.69 in 4.0 mi North 8.1 mph - 0.01 in Snow Light Snow
5:15 AM 28.4 °F - 26.6 °F 93% 29.69 in 6.0 mi Calm Calm - N/A Snow Light Snow
5:35 AM 28.4 °F 22.2 °F 26.6 °F 93% 29.69 in 5.0 mi North 5.8 mph - N/A Snow Light Snow
5:55 AM 28.4 °F 19.7 °F 26.6 °F 93% 29.69 in 7.0 mi NNW 9.2 mph - N/A Rain Light Freezing Rain
6:15 AM 28.4 °F 19.7 °F 24.8 °F 86% 29.70 in 7.0 mi North 9.2 mph - N/A Rain Light Freezing Rain
6:35 AM 28.4 °F 19.1 °F 24.8 °F 86% 29.71 in 3.0 mi North 10.4 mph 17.3 mph N/A Snow Light Snow
6:55 AM 28.4 °F 22.2 °F 26.6 °F 93% 29.73 in 1.5 mi North 5.8 mph - N/A Snow Light Snow
7:55 AM 26.6 °F 15.7 °F 24.8 °F 93% 29.79 in 2.0 mi NNE 12.7 mph 20.7 mph N/A Snow Light Snow
8:55 AM 26.6 °F 16.2 °F 24.8 °F 93% 29.82 in 0.8 mi NNE 11.5 mph - N/A Snow Light Snow
9:45 AM 26.6 °F 13.8 °F 23.0 °F 86% 29.86 in 1.0 mi NNE 17.3 mph 21.9 mph N/A Snow Light Snow
10:45 AM 32.0 °F 19.2 °F 19.4 °F 60% 29.87 in 10.0 mi NE 23.0 mph 35.7 mph N/A   Mostly Cloudy
11:45 AM 33.8 °F 22.5 °F 24.8 °F 70% 29.89 in 10.0 mi NNE 19.6 mph 32.2 mph N/A   Mostly Cloudy
12:45 PM 35.6 °F 24.2 °F 21.2 °F 56% 29.91 in 10.0 mi NE 21.9 mph 31.1 mph N/A   Mostly Cloudy
1:45 PM 35.6 °F 25.2 °F 19.4 °F 52% 29.92 in 10.0 mi North 18.4 mph 25.3 mph N/A   Mostly Cloudy
2:50 PM 37.4 °F 28.2 °F 17.6 °F 45% 29.91 in 10.0 mi North 16.1 mph 24.2 mph N/A   Mostly Cloudy
3:45 PM 37.4 °F 27.5 °F 17.6 °F 45% 29.91 in 10.0 mi NNE 18.4 mph 28.8 mph N/A   Mostly Cloudy
4:50 PM 37.4 °F 28.2 °F 19.4 °F 48% 29.93 in 10.0 mi NNE 16.1 mph 21.9 mph N/A   Mostly Cloudy
5:45 PM 37.4 °F 29.3 °F 19.4 °F 48% 29.94 in 10.0 mi NNE 12.7 mph 20.7 mph N/A   Mostly Cloudy
5:55 PM 35.6 °F 26.6 °F 19.4 °F 52% 29.94 in 10.0 mi NNE 13.8 mph 19.6 mph N/A   Scattered Clouds
6:15 PM 35.6 °F 27.1 °F 19.4 °F 52% 29.94 in 10.0 mi NE 12.7 mph - N/A   Scattered Clouds
6:35 PM 37.4 °F 28.5 °F 19.4 °F 48% 29.95 in 10.0 mi NE 15.0 mph 19.6 mph N/A   Mostly Cloudy
6:55 PM 35.6 °F 27.1 °F 19.4 °F 52% 29.96 in 10.0 mi NE 12.7 mph 20.7 mph N/A   Mostly Cloudy
7:15 PM 35.6 °F 26.6 °F 19.4 °F 52% 29.96 in 10.0 mi NNE 13.8 mph 21.9 mph N/A   Overcast
7:35 PM 35.6 °F 27.1 °F 19.4 °F 52% 29.97 in 10.0 mi NE 12.7 mph 19.6 mph N/A   Overcast
7:55 PM 33.8 °F 25.3 °F 21.2 °F 60% 29.98 in 10.0 mi NE 11.5 mph 16.1 mph N/A   Overcast
8:15 PM 32.0 °F 24.8 °F 21.2 °F 64% 29.99 in 10.0 mi NE 8.1 mph - N/A   Mostly Cloudy
8:35 PM 32.0 °F 24.8 °F 21.2 °F 64% 29.99 in 10.0 mi NE 8.1 mph - N/A   Partly Cloudy
8:55 PM 32.0 °F 24.8 °F 21.2 °F 64% 30.00 in 10.0 mi NE 8.1 mph - N/A   Clear
9:15 PM 32.0 °F 23.6 °F 19.4 °F 60% 30.01 in 10.0 mi NNE 10.4 mph - N/A   Clear
9:35 PM 32.0 °F 24.8 °F 21.2 °F 64% 30.02 in 10.0 mi NE 8.1 mph - N/A   Partly Cloudy
9:55 PM 32.0 °F 24.2 °F 19.4 °F 60% 30.03 in 10.0 mi NE 9.2 mph 16.1 mph N/A   Scattered Clouds
10:15 PM 32.0 °F 21.6 °F 19.4 °F 60% 30.04 in 10.0 mi NE 15.0 mph 21.9 mph N/A   Mostly Cloudy
10:35 PM 32.0 °F 22.5 °F 19.4 °F 60% 30.04 in 10.0 mi NNE 12.7 mph 23.0 mph N/A   Mostly Cloudy
10:55 PM 32.0 °F 21.2 °F 19.4 °F 60% 30.03 in 10.0 mi NNE 16.1 mph 23.0 mph N/A   Partly Cloudy
11:15 PM 32.0 °F 21.6 °F 19.4 °F 60% 30.04 in 10.0 mi NE 15.0 mph 25.3 mph N/A   Scattered Clouds
11:35 PM 32.0 °F 22.5 °F 19.4 °F 60% 30.05 in 10.0 mi NE 12.7 mph 25.3 mph N/A   Overcast
11:55 PM 32.0 °F 20.8 °F 17.6 °F 55% 30.05 in 10.0 mi NNE 17.3 mph 25.3 mph N/A   Overcast